| time (UTC) | temp F | wind direction | speed MPH | gust MPH | rain 1hr in | rain 24hr in | rain mn in | humidity % | barometer mb |
| 20260502170322 | 73 | 0.0 | 0.0 | 0.00 | 0.00 | 0.00 | 64 | 1012.1 | |
| 20260502164319 | 73 | 0.0 | 0.0 | 0.00 | 0.00 | 0.00 | 63 | 1012.5 | |
| 20260502163818 | 74 | 0.0 | 0.0 | 0.00 | 0.00 | 0.00 | 63 | 1012.5 | |
| 20260502163316 | 74 | 0.0 | 0.0 | 0.00 | 0.00 | 0.00 | 63 | 1012.5 | |
| 20260502162816 | 74 | 0.0 | 0.0 | 0.00 | 0.00 | 0.00 | 62 | 1012.7 | |
| 20260502162314 | 74 | 0.0 | 0.0 | 0.00 | 0.00 | 0.00 | 62 | 1012.7 | |
| 20260502161814 | 74 | 0.0 | 0.0 | 0.00 | 0.00 | 0.00 | 62 | 1013.0 | |
| 20260502161312 | 74 | 0.0 | 0.0 | 0.00 | 0.00 | 0.00 | 62 | 1013.0 | |
| 20260502160812 | 75 | 0.0 | 0.0 | 0.00 | 0.00 | 0.00 | 62 | 1013.1 | |
| 20260502160311 | 75 | 0.0 | 0.0 | 0.00 | 0.00 | 0.00 | 62 | 1013.1 | |
| 20260502152323 | 75 | 0.0 | 0.0 | 0.00 | 0.00 | 0.00 | 63 | 1013.6 | |
| 20260502151802 | 75 | 0.0 | 0.0 | 0.00 | 0.00 | 0.00 | 63 | 1013.8 | |
| 20260502151301 | 75 | 0.0 | 0.0 | 0.00 | 0.00 | 0.00 | 63 | 1013.8 | |
| 20260502150801 | 75 | 0.0 | 0.0 | 0.00 | 0.00 | 0.00 | 63 | 1014.0 | |
| 20260502150258 | 75 | 0.0 | 0.0 | 0.00 | 0.00 | 0.00 | 63 | 1014.0 | |
| 20260502130735 | 73 | 0.0 | 0.0 | 0.00 | 0.00 | 0.00 | 68 | 1015.8 | |
| 20260502130235 | 73 | 0.0 | 0.0 | 0.00 | 0.00 | 0.00 | 68 | 1015.8 | |
| 20260502123729 | 73 | 0.0 | 0.0 | 0.00 | 0.00 | 0.00 | 70 | 1016.2 | |
| 20260502123249 | 73 | 0.0 | 0.0 | 0.00 | 0.00 | 0.00 | 70 | 1016.2 | |
| 20260502122727 | 72 | 0.0 | 0.0 | 0.00 | 0.00 | 0.00 | 72 | 1016.3 | |
| 20260502122227 | 72 | 0.0 | 0.0 | 0.00 | 0.00 | 0.00 | 72 | 1016.3 | |
| 20260502121725 | 72 | 0.0 | 0.0 | 0.00 | 0.00 | 0.00 | 71 | 1016.3 | |
| 20260502121225 | 72 | 0.0 | 0.0 | 0.00 | 0.00 | 0.00 | 71 | 1016.3 | |
| 20260502120724 | 72 | 0.0 | 0.0 | 0.00 | 0.00 | 0.00 | 71 | 1016.5 | |
| 20260502120223 | 72 | 0.0 | 0.0 | 0.00 | 0.00 | 0.00 | 71 | 1016.5 | |
| 20260502115722 | 71 | 0.0 | 0.0 | 0.00 | 0.00 | 0.00 | 71 | 1016.6 | |
| 20260502115221 | 71 | 0.0 | 0.0 | 0.00 | 0.00 | 0.00 | 71 | 1016.6 | |
| 20260502114720 | 71 | 0.0 | 0.0 | 0.00 | 0.00 | 0.00 | 72 | 1016.7 | |
| 20260502113717 | 71 | 0.0 | 0.0 | 0.00 | 0.00 | 0.00 | 70 | 1016.8 | |
| 20260502113217 | 71 | 0.0 | 0.0 | 0.00 | 0.00 | 0.00 | 70 | 1016.8 | |
| 20260502112735 | 71 | 0.0 | 0.0 | 0.00 | 0.00 | 0.00 | 73 | 1017.0 | |
| 20260502112216 | 71 | 0.0 | 0.0 | 0.00 | 0.00 | 0.00 | 73 | 1017.0 | |
| 20260502111714 | 71 | 0.0 | 0.0 | 0.00 | 0.00 | 0.00 | 73 | 1017.0 | |
| 20260502111213 | 71 | 0.0 | 0.0 | 0.00 | 0.00 | 0.00 | 73 | 1017.0 | |
| 20260502110712 | 71 | 0.0 | 0.0 | 0.00 | 0.00 | 0.00 | 75 | 1017.1 | |
| 20260502110250 | 71 | 0.0 | 0.0 | 0.00 | 0.00 | 0.00 | 75 | 1017.1 | |
| 20260502105710 | 70 | 0.0 | 0.0 | 0.00 | 0.00 | 0.00 | 74 | 1017.3 | |
| 20260502105208 | 70 | 0.0 | 0.0 | 0.00 | 0.00 | 0.00 | 74 | 1017.3 | |
| 20260502104708 | 70 | 0.0 | 0.0 | 0.00 | 0.00 | 0.00 | 75 | 1017.4 | |
| 20260502104206 | 70 | 0.0 | 0.0 | 0.00 | 0.00 | 0.00 | 75 | 1017.4 | |
| 20260502103706 | 70 | 0.0 | 0.0 | 0.00 | 0.00 | 0.00 | 76 | 1017.6 | |
| 20260502103204 | 70 | 0.0 | 0.0 | 0.00 | 0.00 | 0.00 | 76 | 1017.6 | |
| 20260502102705 | 69 | 0.0 | 0.0 | 0.00 | 0.00 | 0.00 | 76 | 1017.7 | |
| 20260502102203 | 69 | 0.0 | 0.0 | 0.00 | 0.00 | 0.00 | 76 | 1017.7 | |
| 20260502101702 | 69 | 0.0 | 0.0 | 0.00 | 0.00 | 0.00 | 76 | 1017.7 | |
| 20260502101241 | 69 | 0.0 | 0.0 | 0.00 | 0.00 | 0.00 | 76 | 1017.7 | |
| 20260502100700 | 69 | 0.0 | 0.0 | 0.00 | 0.00 | 0.00 | 76 | 1017.7 | |
| 20260502100159 | 69 | 0.0 | 0.0 | 0.00 | 0.00 | 0.00 | 76 | 1017.9 | |
| 20260502091149 | 69 | 0.0 | 0.0 | 0.00 | 0.00 | 0.00 | 77 | 1018.1 | |
| 20260502090708 | 69 | 0.0 | 0.0 | 0.00 | 0.00 | 0.00 | 77 | 1018.1 | |
| 20260502090209 | 69 | 0.0 | 0.0 | 0.00 | 0.00 | 0.00 | 76 | 1018.2 | |
| 20260502071126 | 62 | 0.0 | 0.0 | 0.00 | 0.00 | 0.00 | 84 | 1018.1 | |
| 20260502070624 | 62 | 0.0 | 0.0 | 0.00 | 0.00 | 0.00 | 84 | 1018.1 | |
| 20260502070123 | 62 | 0.0 | 0.0 | 0.00 | 0.00 | 0.00 | 84 | 1018.3 | |
| 20260502065622 | 62 | 0.0 | 0.0 | 0.00 | 0.00 | 0.00 | 84 | 1018.3 | |
| 20260502065122 | 61 | 0.0 | 0.0 | 0.00 | 0.00 | 0.00 | 85 | 1018.2 | |
| 20260502064620 | 61 | 0.0 | 0.0 | 0.00 | 0.00 | 0.00 | 85 | 1018.2 | |
| 20260502064120 | 60 | 0.0 | 0.0 | 0.00 | 0.00 | 0.00 | 85 | 1018.2 | |
| 20260502063618 | 60 | 0.0 | 0.0 | 0.00 | 0.00 | 0.00 | 85 | 1018.2 | |
| 20260502063138 | 59 | 0.0 | 0.0 | 0.00 | 0.00 | 0.00 | 84 | 1018.2 | |
| 20260502062615 | 59 | 0.0 | 0.0 | 0.00 | 0.00 | 0.00 | 84 | 1018.2 | |
| 20260502062136 | 59 | 0.0 | 0.0 | 0.00 | 0.00 | 0.00 | 84 | 1018.1 | |
| 20260502061615 | 59 | 0.0 | 0.0 | 0.00 | 0.00 | 0.00 | 84 | 1018.1 | |
| 20260502061132 | 59 | 0.0 | 0.0 | 0.00 | 0.00 | 0.00 | 84 | 1018.0 | |
| 20260502060612 | 59 | 0.0 | 0.0 | 0.00 | 0.00 | 0.00 | 84 | 1018.0 | |
| 20260502060111 | 58 | 0.0 | 0.0 | 0.00 | 0.00 | 0.00 | 84 | 1018.0 | |
| 20260502055610 | 58 | 0.0 | 0.0 | 0.00 | 0.00 | 0.00 | 84 | 1018.0 | |
| 20260502055108 | 58 | 0.0 | 0.0 | 0.00 | 0.00 | 0.00 | 84 | 1018.0 | |
| 20260502054606 | 58 | 0.0 | 0.0 | 0.00 | 0.00 | 0.00 | 84 | 1018.0 | |
| 20260502054105 | 58 | 0.0 | 0.0 | 0.00 | 0.00 | 0.00 | 83 | 1018.0 | |
| 20260502053605 | 58 | 0.0 | 0.0 | 0.00 | 0.00 | 0.00 | 83 | 1018.0 | |
| 20260502053103 | 58 | 0.0 | 0.0 | 0.00 | 0.00 | 0.00 | 83 | 1018.0 | |
| 20260502052603 | 58 | 0.0 | 0.0 | 0.00 | 0.00 | 0.00 | 83 | 1018.0 | |
| 20260502052101 | 58 | 0.0 | 0.0 | 0.00 | 0.00 | 0.00 | 83 | 1018.1 | |
| 20260502051601 | 58 | 0.0 | 0.0 | 0.00 | 0.00 | 0.00 | 83 | 1018.1 | |
| 20260502051059 | 58 | 0.0 | 0.0 | 0.00 | 0.00 | 0.00 | 82 | 1018.0 | |
| 20260502050559 | 58 | 0.0 | 0.0 | 0.00 | 0.00 | 0.00 | 82 | 1018.0 | |
| 20260502050057 | 58 | 0.0 | 0.0 | 0.00 | 0.00 | 0.00 | 82 | 1018.0 | |
| 20260502045617 | 58 | 0.0 | 0.0 | 0.00 | 0.00 | 0.00 | 82 | 1018.0 | |
| 20260502045055 | 58 | 0.0 | 0.0 | 0.00 | 0.00 | 0.00 | 81 | 1018.1 | |
| 20260502044555 | 58 | 0.0 | 0.0 | 0.00 | 0.00 | 0.00 | 81 | 1018.1 | |
| 20260502044053 | 58 | 0.0 | 0.0 | 0.00 | 0.00 | 0.00 | 80 | 1018.1 | |
| 20260502043553 | 58 | 0.0 | 0.0 | 0.00 | 0.00 | 0.00 | 80 | 1018.1 | |
| 20260502043052 | 58 | 0.0 | 0.0 | 0.00 | 0.00 | 0.00 | 80 | 1018.0 | |
| 20260502042551 | 58 | 0.0 | 0.0 | 0.00 | 0.00 | 0.00 | 80 | 1018.0 | |
| 20260502042050 | 58 | 0.0 | 0.0 | 0.00 | 0.00 | 0.00 | 81 | 1017.9 | |
| 20260502041608 | 58 | 0.0 | 0.0 | 0.00 | 0.00 | 0.00 | 81 | 1017.9 | |
| 20260502041048 | 58 | 0.0 | 0.0 | 0.00 | 0.00 | 0.00 | 80 | 1017.8 | |
| 20260502040546 | 58 | 0.0 | 0.0 | 0.00 | 0.00 | 0.00 | 80 | 1017.8 | |
| 20260502040046 | 58 | 0.0 | 0.0 | 0.00 | 0.00 | 0.00 | 80 | 1018.0 | |
| 20260502035624 | 58 | 0.0 | 0.0 | 0.00 | 0.00 | 0.00 | 80 | 1018.0 | |
| 20260502035044 | 58 | 0.0 | 0.0 | 0.00 | 0.00 | 0.00 | 79 | 1018.1 | |
| 20260502034543 | 58 | 0.0 | 0.0 | 0.00 | 0.00 | 0.00 | 79 | 1018.1 | |
| 20260502034042 | 58 | 0.0 | 0.0 | 0.00 | 0.00 | 0.00 | 79 | 1018.0 | |
| 20260502033540 | 58 | 0.0 | 0.0 | 0.00 | 0.00 | 0.00 | 79 | 1018.0 | |
| 20260502033040 | 58 | 0.0 | 0.0 | 0.00 | 0.00 | 0.00 | 78 | 1018.2 | |
| 20260502032539 | 58 | 0.0 | 0.0 | 0.00 | 0.00 | 0.00 | 78 | 1018.2 | |
| 20260502032037 | 58 | 0.0 | 0.0 | 0.00 | 0.00 | 0.00 | 77 | 1018.4 | |
| 20260502031536 | 58 | 0.0 | 0.0 | 0.00 | 0.00 | 0.00 | 77 | 1018.4 | |
| 20260502031036 | 58 | 0.0 | 0.0 | 0.00 | 0.00 | 0.00 | 76 | 1018.6 | |
| 20260502030534 | 58 | 0.0 | 0.0 | 0.00 | 0.00 | 0.00 | 76 | 1018.6 | |
| 20260502030054 | 58 | 0.0 | 0.0 | 0.00 | 0.00 | 0.00 | 75 | 1018.7 | |
| 20260502025532 | 58 | 0.0 | 0.0 | 0.00 | 0.00 | 0.00 | 75 | 1018.7 | |
| 20260502025031 | 58 | 0.0 | 0.0 | 0.00 | 0.00 | 0.00 | 74 | 1018.7 | |
| 20260502024530 | 58 | 0.0 | 0.0 | 0.00 | 0.00 | 0.00 | 74 | 1018.7 | |
| 20260502024029 | 58 | 0.0 | 0.0 | 0.00 | 0.00 | 0.00 | 73 | 1018.8 | |
| 20260502023529 | 58 | 0.0 | 0.0 | 0.00 | 0.00 | 0.00 | 73 | 1018.8 | |
| 20260502023028 | 58 | 0.0 | 0.0 | 0.00 | 0.00 | 0.00 | 71 | 1018.8 | |
| 20260502022527 | 58 | 0.0 | 0.0 | 0.00 | 0.00 | 0.00 | 71 | 1018.8 | |
| 20260502022025 | 57 | 0.0 | 0.0 | 0.00 | 0.00 | 0.00 | 70 | 1018.7 | |
| 20260502021525 | 57 | 0.0 | 0.0 | 0.00 | 0.00 | 0.00 | 70 | 1018.7 | |
| 20260502021043 | 57 | 0.0 | 0.0 | 0.00 | 0.00 | 0.00 | 71 | 1018.8 | |
| 20260502020523 | 57 | 0.0 | 0.0 | 0.00 | 0.00 | 0.00 | 71 | 1018.8 | |
| 20260502020042 | 57 | 0.0 | 0.0 | 0.00 | 0.00 | 0.00 | 70 | 1018.8 | |
| 20260502015521 | 57 | 0.0 | 0.0 | 0.00 | 0.00 | 0.00 | 70 | 1018.8 | |
| 20260502015040 | 58 | 0.0 | 0.0 | 0.00 | 0.00 | 0.00 | 70 | 1018.6 | |
| 20260502014519 | 58 | 0.0 | 0.0 | 0.00 | 0.00 | 0.00 | 70 | 1018.6 | |
| 20260502014018 | 58 | 0.0 | 0.0 | 0.00 | 0.00 | 0.00 | 70 | 1018.5 | |
| 20260502013537 | 58 | 0.0 | 0.0 | 0.00 | 0.00 | 0.00 | 70 | 1018.5 | |
| 20260502013016 | 58 | 0.0 | 0.0 | 0.00 | 0.00 | 0.00 | 69 | 1018.5 | |
| 20260502012515 | 58 | 0.0 | 0.0 | 0.00 | 0.00 | 0.00 | 69 | 1018.5 | |
| 20260502011512 | 58 | 0.0 | 0.0 | 0.00 | 0.00 | 0.00 | 69 | 1018.5 | |
| 20260502010511 | 57 | 0.0 | 0.0 | 0.00 | 0.00 | 0.00 | 69 | 1018.5 | |
| 20260502005509 | 57 | 0.0 | 0.0 | 0.00 | 0.00 | 0.00 | 68 | 1018.6 | |
| 20260502004547 | 57 | 0.0 | 0.0 | 0.00 | 0.00 | 0.00 | 68 | 1018.6 | |
| 20260502003525 | 57 | 0.0 | 0.0 | 0.00 | 0.00 | 0.00 | 67 | 1018.6 | |
| 20260502002503 | 58 | 0.0 | 0.0 | 0.00 | 0.00 | 0.00 | 66 | 1018.6 | |
| 20260502001501 | 58 | 0.0 | 0.0 | 0.00 | 0.00 | 0.00 | 66 | 1018.6 | |
| 20260502000959 | 58 | 0.0 | 0.0 | 0.00 | 0.00 | 0.00 | 65 | 1018.7 | |
| 20260502000459 | 58 | 0.0 | 0.0 | 0.00 | 0.00 | 0.00 | 65 | 1018.7 | |
| 20260501235957 | 59 | 0.0 | 0.0 | 0.00 | 0.00 | 0.00 | 65 | 1018.9 | |
| 20260501235456 | 59 | 0.0 | 0.0 | 0.00 | 0.00 | 0.00 | 65 | 1018.9 | |
| 20260501234955 | 59 | 0.0 | 0.0 | 0.00 | 0.00 | 0.00 | 65 | 1018.9 | |
| 20260501234455 | 59 | 0.0 | 0.0 | 0.00 | 0.00 | 0.00 | 65 | 1018.9 | |
| 20260501233953 | 59 | 0.0 | 0.0 | 0.00 | 0.00 | 0.00 | 64 | 1019.1 | |
| 20260501233452 | 59 | 0.0 | 0.0 | 0.00 | 0.00 | 0.00 | 64 | 1019.1 | |
| 20260501232951 | 60 | 0.0 | 0.0 | 0.00 | 0.00 | 0.00 | 62 | 1019.2 | |
| 20260501232451 | 60 | 0.0 | 0.0 | 0.00 | 0.00 | 0.00 | 62 | 1019.2 | |
| 20260501231949 | 60 | 0.0 | 0.0 | 0.00 | 0.00 | 0.00 | 62 | 1019.2 | |
| 20260501231508 | 60 | 0.0 | 0.0 | 0.00 | 0.00 | 0.00 | 62 | 1019.2 | |
| 20260501230948 | 60 | 0.0 | 0.0 | 0.00 | 0.00 | 0.00 | 61 | 1019.3 | |
| 20260501230447 | 60 | 0.0 | 0.0 | 0.00 | 0.00 | 0.00 | 61 | 1019.3 | |
| 20260501225945 | 60 | 0.0 | 0.0 | 0.00 | 0.00 | 0.00 | 61 | 1019.4 | |
| 20260501225505 | 60 | 0.0 | 0.0 | 0.00 | 0.00 | 0.00 | 61 | 1019.4 | |
| 20260501224943 | 60 | 0.0 | 0.0 | 0.00 | 0.00 | 0.00 | 63 | 1019.4 | |
| 20260501224453 | 60 | 0.0 | 0.0 | 0.00 | 0.00 | 0.00 | 63 | 1019.4 | |
| 20260501223941 | 61 | 0.0 | 0.0 | 0.00 | 0.00 | 0.00 | 61 | 1019.3 | |
| 20260501223621 | 61 | 0.0 | 0.0 | 0.00 | 0.00 | 0.00 | 61 | 1019.3 | |
| 20260501222939 | 61 | 0.0 | 0.0 | 0.00 | 0.00 | 0.00 | 61 | 1019.4 | |
| 20260501222459 | 61 | 0.0 | 0.0 | 0.00 | 0.00 | 0.00 | 61 | 1019.4 | |
| 20260501221939 | 61 | 0.0 | 0.0 | 0.00 | 0.00 | 0.00 | 61 | 1019.5 | |
| 20260501221436 | 61 | 0.0 | 0.0 | 0.00 | 0.00 | 0.00 | 61 | 1019.5 | |
| 20260501220936 | 61 | 0.0 | 0.0 | 0.00 | 0.00 | 0.00 | 60 | 1019.5 | |
| 20260501220434 | 61 | 0.0 | 0.0 | 0.00 | 0.00 | 0.00 | 60 | 1019.5 | |
| 20260501215954 | 61 | 0.0 | 0.0 | 0.00 | 0.00 | 0.00 | 60 | 1019.6 | |
| 20260501215432 | 61 | 0.0 | 0.0 | 0.00 | 0.00 | 0.00 | 60 | 1019.6 | |
| 20260501214932 | 62 | 0.0 | 0.0 | 0.00 | 0.00 | 0.00 | 60 | 1019.6 | |
| 20260501214430 | 62 | 0.0 | 0.0 | 0.00 | 0.00 | 0.00 | 60 | 1019.6 | |
| 20260501213929 | 62 | 0.0 | 0.0 | 0.00 | 0.00 | 0.00 | 60 | 1019.7 | |
| 20260501213429 | 62 | 0.0 | 0.0 | 0.00 | 0.00 | 0.00 | 60 | 1019.7 | |
| 20260501212947 | 62 | 0.0 | 0.0 | 0.00 | 0.00 | 0.00 | 60 | 1019.7 | |
| 20260501212427 | 62 | 0.0 | 0.0 | 0.00 | 0.00 | 0.00 | 60 | 1019.7 | |
| 20260501211926 | 62 | 0.0 | 0.0 | 0.00 | 0.00 | 0.00 | 59 | 1019.8 | |
| 20260501211426 | 62 | 0.0 | 0.0 | 0.00 | 0.00 | 0.00 | 59 | 1019.8 | |
| 20260501210923 | 63 | 0.0 | 0.0 | 0.00 | 0.00 | 0.00 | 57 | 1019.8 | |
| 20260501210422 | 63 | 0.0 | 0.0 | 0.00 | 0.00 | 0.00 | 57 | 1019.8 | |
| 20260501205922 | 63 | 0.0 | 0.0 | 0.00 | 0.00 | 0.00 | 56 | 1019.8 | |
| 20260501205420 | 63 | 0.0 | 0.0 | 0.00 | 0.00 | 0.00 | 56 | 1019.8 | |
| 20260501204920 | 64 | 0.0 | 0.0 | 0.00 | 0.00 | 0.00 | 56 | 1019.8 | |
| 20260501204419 | 64 | 0.0 | 0.0 | 0.00 | 0.00 | 0.00 | 56 | 1019.8 | |
| 20260501203918 | 65 | 0.0 | 0.0 | 0.00 | 0.00 | 0.00 | 54 | 1019.8 | |
| 20260501203416 | 65 | 0.0 | 0.0 | 0.00 | 0.00 | 0.00 | 54 | 1019.8 | |
| 20260501202916 | 65 | 0.0 | 0.0 | 0.00 | 0.00 | 0.00 | 53 | 1019.7 | |
| 20260501202414 | 65 | 0.0 | 0.0 | 0.00 | 0.00 | 0.00 | 53 | 1019.7 | |
| 20260501201914 | 66 | 0.0 | 0.0 | 0.00 | 0.00 | 0.00 | 52 | 1019.6 | |
| 20260501201413 | 66 | 0.0 | 0.0 | 0.00 | 0.00 | 0.00 | 52 | 1019.6 | |
| 20260501200912 | 67 | 0.0 | 0.0 | 0.00 | 0.00 | 0.00 | 52 | 1019.5 | |
| 20260501200451 | 67 | 0.0 | 0.0 | 0.00 | 0.00 | 0.00 | 52 | 1019.5 | |
| 20260501195909 | 68 | 0.0 | 0.0 | 0.00 | 0.00 | 0.00 | 51 | 1019.5 | |
| 20260501195430 | 68 | 0.0 | 0.0 | 0.00 | 0.00 | 0.00 | 51 | 1019.5 | |
| 20260501194907 | 69 | 0.0 | 0.0 | 0.00 | 0.00 | 0.00 | 49 | 1019.5 | |
| 20260501194407 | 69 | 0.0 | 0.0 | 0.00 | 0.00 | 0.00 | 49 | 1019.5 | |
| 20260501193905 | 69 | 0.0 | 0.0 | 0.00 | 0.00 | 0.00 | 46 | 1019.4 | |
| 20260501193411 | 69 | 0.0 | 0.0 | 0.00 | 0.00 | 0.00 | 46 | 1019.4 | |
| 20260501192923 | 70 | 0.0 | 0.0 | 0.00 | 0.00 | 0.00 | 45 | 1019.4 | |
| 20260501192425 | 70 | 0.0 | 0.0 | 0.00 | 0.00 | 0.00 | 45 | 1019.4 | |
| 20260501191901 | 71 | 0.0 | 0.0 | 0.00 | 0.00 | 0.00 | 44 | 1019.3 | |
| 20260501191401 | 71 | 0.0 | 0.0 | 0.00 | 0.00 | 0.00 | 44 | 1019.3 | |
| 20260501190900 | 72 | 0.0 | 0.0 | 0.00 | 0.00 | 0.00 | 44 | 1019.3 | |
| 20260501190359 | 72 | 0.0 | 0.0 | 0.00 | 0.00 | 0.00 | 44 | 1019.3 | |
| 20260501185858 | 72 | 0.0 | 0.0 | 0.00 | 0.00 | 0.00 | 43 | 1019.2 | |
| 20260501185357 | 72 | 0.0 | 0.0 | 0.00 | 0.00 | 0.00 | 43 | 1019.2 | |
| 20260501184856 | 73 | 0.0 | 0.0 | 0.00 | 0.00 | 0.00 | 43 | 1019.2 | |
| 20260501184355 | 73 | 0.0 | 0.0 | 0.00 | 0.00 | 0.00 | 43 | 1019.2 | |
| 20260501183855 | 74 | 0.0 | 0.0 | 0.00 | 0.00 | 0.00 | 43 | 1019.2 | |
| 20260501183352 | 74 | 0.0 | 0.0 | 0.00 | 0.00 | 0.00 | 43 | 1019.2 | |
| 20260501182851 | 74 | 0.0 | 0.0 | 0.00 | 0.00 | 0.00 | 43 | 1019.2 | |
| 20260501182357 | 74 | 0.0 | 0.0 | 0.00 | 0.00 | 0.00 | 42 | 1019.1 | |
| 20260501181849 | 74 | 0.0 | 0.0 | 0.00 | 0.00 | 0.00 | 42 | 1019.1 | |
| 20260501181350 | 75 | 0.0 | 0.0 | 0.00 | 0.00 | 0.00 | 41 | 1019.0 | |
| 20260501180908 | 75 | 0.0 | 0.0 | 0.00 | 0.00 | 0.00 | 41 | 1019.0 | |
| 20260501180346 | 75 | 0.0 | 0.0 | 0.00 | 0.00 | 0.00 | 41 | 1019.1 | |
| 20260501175846 | 75 | 0.0 | 0.0 | 0.00 | 0.00 | 0.00 | 41 | 1019.1 | |
| 20260501175344 | 75 | 0.0 | 0.0 | 0.00 | 0.00 | 0.00 | 40 | 1019.1 |